Regional Weather Roundup
Issued by NWS

Home | Current Version | Previous Version | Text Only | Print | Product List | Glossary Off
Versions: 1 2 3 4 5 6 7 8 9 10 11 12 13 14 15 16 17 18 19 20 21 22 23 24 25 26 27 28 29 30 31 32 33 34 35 36 37 38 39 40 41 42 43 44 45 46 47 48 49 50

251
ASUS44 KMEG 190700
RWRTN
TENNESSEE HOURLY STATE WEATHER ROUNDUP
NATIONAL WEATHER SERVICE MEMPHIS TN
100 AM CST SUN FEB 19 2017

TNZ002-004-019-021-049-052-054-088>092-190800-
WEST TENNESSEE

CITY           SKY/WX    TMP DP  RH WIND       PRES   REMARKS
MEMPHIS INTL   CLEAR     52  50  93 S5        29.97R
NWS MEMPHIS      N/A     49 N/A N/A MISG        N/A
JACKSON        FOG       48  48 100 CALM      29.98R VSB 3/4
UNION CITY     CLOUDY   N/A N/A N/A CALM      29.95S VSB 0
PARIS          MOCLDY    48  46  93 CALM      29.96F
$$

TNZ008-025-027-028-033-062-065-066-190800-
NORTH MIDDLE TENNESSEE

CITY           SKY/WX    TMP DP  RH WIND       PRES   REMARKS
NASHVILLE      CLOUDY    52  48  86 S5        29.99R
CLARKSVILLE    CLOUDY    48  47  96 SE3       29.96F FOG
SMYRNA         CLOUDY    51  48  89 SE3       30.00R
CROSSVILLE     CLOUDY    47  45  93 CALM      29.99F
$$

TNZ061-075-076-078-094-096-097-190800-
SOUTH MIDDLE TENNESSEE

CITY           SKY/WX    TMP DP  RH WIND       PRES   REMARKS
TULLAHOMA      CLOUDY    48  48 100 CALM      29.99S
WINCHESTER     CLOUDY    48  48 100 CALM      29.99S
MCMINNVILLE    CLOUDY    48  48 100 CALM      29.99R
COLUMBIA       CLOUDY   N/A N/A N/A CALM      29.97S
SHELBYVILLE    CLOUDY    52  50  93 CALM      30.00R
$$

TNZ017-018-042-046-047-190800-
NORTHEAST TENNESSEE

CITY           SKY/WX    TMP DP  RH WIND       PRES   REMARKS
TRI CITIES     DRIZZLE   47  45  93 SW5       29.99S
$$

TNZ012-013-036-069-073-074-190800-
CENTRAL EAST TENNESSEE

CITY           SKY/WX    TMP DP  RH WIND       PRES   REMARKS
KNOXVILLE      CLOUDY    50  48  93 SW3       29.99S FOG
OAK RIDGE      CLOUDY    50  48  93 CALM      30.01S FOG
GATLINBURG     CLOUDY    48  46  93 CALM      29.99S
$$

TNZ083-085-099-190800-
SOUTHEAST TENNESSEE

CITY           SKY/WX    TMP DP  RH WIND       PRES   REMARKS
CHATTANOOGA    CLOUDY    50  48  93 CALM      30.00S FOG
$$

SKY/WX REPORTED AS FAIR MEANS FEW OR NO CLOUDS BELOW
12 THOUSAND FEET.





USA.gov is the U.S. government's official web portal to all federal, state and local government web resources and services.